KLEX Airport Diagram

We have created a template for each of the higher traffic airports in the vZID airspace. They include KCMH, KCRW, KCVG, KDAY, KIND, KLEX and KSDF. You wil find usefull information including the airport diagram, weather, and specific airport procedures.

KLEX Weather

[Source: ADDS]
METAR
KLEX 240054Z 07006KT 10SM CLR 08/M06 A3027 RMK AO2 SLP255 T00831056 =
KLEX 232331Z 2400/2424 VRB03KT P6SM SCT250 FM241100 14006KT P6SM BKN150 FM241800 21010KT P6SM BKN050
TAF
KLEX 232331Z 2400/2424 VRB03KT P6SM SCT250 FM241100 14006KT P6SM BKN150 FM241800 21010KT P6SM BKN050 =

KLEX Operations

Calm wind runway at KLEX is Runway 22, up to and including 10kts.

Default scenery shows Runway 8/26, which crosses Runway 22. When taxiing to Runway 22, clearance to cross Runway 26 not required.

Updated scenery available at www.flightsim.com.

 

JSN Epic template designed by JoomlaShine.com